Location: Argonnex
(45.9500°N, 6.1333°E)
Time: 16:58:45
(UTC+00:00)

Cosmos 2251 Rocket - Pass Details

Date: 28 January 2023
Orbit: 764 x 790 km, 74.0° (Epoch: 29 March)

Event Time Altitude Azimuth Distance (km) Brightness Sun altitude
Rises 18:27:11 0° 212° (SSW) 3,255 7.3 -19.6°
Reaches altitude 10° 18:29:36 10° 216° (SW) 2,335 6.6 -20.0°
Maximum altitude 18:34:49 57° 295° (WNW) 922 4.1 -20.9°
Drops below altitude 10° 18:40:08 10° 15° (NNE) 2,363 5.8 -21.8°
Enters shadow 18:40:26 - 15° (NNE) 2,477 5.9 -21.8°
